Location: Brooks Farm Pond
(32.9618°N, 86.0700°W)
Time: 00:18:26
(UTC+00:00)

Cosmos 1300 - Pass Details

Date: 29 October 2020
Orbit: 511 x 513 km, 82.5° (Epoch: 28 November)

Event Time Altitude Azimuth Distance (km) Brightness Sun altitude
Rises 23:20:23 0° 195° (SSW) 2,612 6.7 -5.9°
Reaches altitude 10° 23:22:32 10° 201° (SSW) 1,730 5.8 -6.4°
Maximum altitude 23:26:15 52° 278° (W) 645 3.7 -7.1°
Drops below altitude 10° 23:29:59 10° 356° (N) 1,743 5.3 -7.9°
Sets 23:32:10 0° 1° (N) 2,633 6.2 -8.4°
